Waarnemingen

Advertentie
Mijn weer
Kenley, Groot Brittannië (3781): temperatuur & dauwpunt: 21.01.2021 12:00:00 - 27.01.2021 12:00:00 (GMT)Kenley, Groot Brittannië (3781): temperatuur -20cm & temperatuur -100cm: 21.01.2021 12:00:00 - 27.01.2021 12:00:00 (GMT)Kenley, Groot Brittannië (3781): windsnelheid & windstoten: 21.01.2021 12:00:00 - 27.01.2021 12:00:00 (GMT)Kenley, Groot Brittannië (3781): windrichting: 21.01.2021 12:00:00 - 27.01.2021 12:00:00 (GMT)Kenley, Groot Brittannië (3781): luchtdruk: 21.01.2021 12:00:00 - 27.01.2021 12:00:00 (GMT)Kenley, Groot Brittannië (3781): zicht: 21.01.2021 12:00:00 - 27.01.2021 12:00:00 (GMT)Kenley, Groot Brittannië (3781): neerslag: 21.01.2021 12:00:00 - 27.01.2021 12:00:00 (GMT)
Datum & Tijd tt [°C] td [°C] tt -20cm [°C] tt -100cm [°C] ff [km/u] ff [kn] fx [km/u] fx [kn] dd ppp [hPa] vv [km] rr [mm]
27.01.2021 12:00:00 8,5 8,1 - - 9 5 - - ZW 1012,4 9 0,2
27.01.2021 11:00:00 8,0 7,7 - - 11 6 - - WZW 1012,7 6 0,0
27.01.2021 10:00:00 7,8 7,6 - - 11 6 - - W 1012,5 8 0,0
27.01.2021 09:00:00 7,2 7,0 4,2 6,9 8 4 - - W 1012,0 7 0,0
27.01.2021 08:00:00 7,0 6,8 - - 11 6 - - W 1011,2 15 0,0
27.01.2021 07:00:00 7,0 6,8 - - 13 7 - - WZW 1010,9 7 0,4
27.01.2021 06:00:00 7,0 6,9 - - 11 6 - - WNW 1010,9 4,5 0,4
27.01.2021 05:00:00 7,2 7,1 - - 15 8 - - WNW 1010,8 5 0,0
27.01.2021 04:00:00 7,2 7,1 - - 13 7 - - W 1010,0 4,8 0,0
27.01.2021 03:00:00 7,4 7,4 - - 13 7 - - WNW 1010,2 5 0,0
27.01.2021 02:00:00 6,8 6,8 - - 13 7 - - WZW 1010,4 0,5 0,0
27.01.2021 01:00:00 6,1 6,1 - - 15 8 - - ZZW 1010,3 0,2 0,2
27.01.2021 00:00:00 5,8 5,7 - - 18 10 - - ZZW 1010,8 0,4 0,0
26.01.2021 23:00:00 5,4 5,3 - - 24 13 - - ZZW 1010,8 1,8 0,0
26.01.2021 22:00:00 5,2 5,0 - - 24 13 - - ZZW 1011,2 2,3 0,0
26.01.2021 21:00:00 4,8 4,6 - - 28 15 48 26 Z 1011,2 8 0,2
26.01.2021 20:00:00 4,6 4,2 - - 29 16 50 27 Z 1012,0 5 0,4
26.01.2021 19:00:00 4,5 4,2 - - 29 16 - - ZZW 1012,9 3,5 1,4
26.01.2021 18:00:00 4,3 3,9 - - 24 13 - - ZZW 1013,7 3,4 1,0
26.01.2021 17:00:00 4,1 3,5 - - 22 12 - - Z 1014,1 3,7 0,0
26.01.2021 16:00:00 4,4 2,8 - - 24 13 - - ZZW 1015,0 23 0,0
26.01.2021 15:00:00 4,3 2,8 - - 24 13 - - ZZW 1015,2 25 0,0
26.01.2021 14:00:00 4,0 2,5 - - 18 10 - - ZZW 1016,5 35 0,0
26.01.2021 13:00:00 3,4 2,6 - - 13 7 - - ZZW 1017,2 24 0,0
26.01.2021 12:00:00 2,7 1,7 - - 13 7 - - ZZW 1017,3 24 0,0
26.01.2021 11:00:00 2,6 0,0 - - 18 10 - - ZZW 1018,2 45 0,0
26.01.2021 10:00:00 2,8 -0,3 - - 11 6 - - ZZW 1018,5 50 0,0
26.01.2021 09:00:00 2,6 -0,4 3,9 7,0 9 5 - - ZZW 1018,3 50 0,0
26.01.2021 08:00:00 1,9 -1,0 - - 9 5 - - ZW 1018,5 50 0,0
26.01.2021 07:00:00 1,4 -1,5 - - 9 5 - - ZW 1018,1 50 0,0
26.01.2021 06:00:00 0,9 -2,4 - - 9 5 - - ZW 1018,1 50 0,0
26.01.2021 05:00:00 0,3 -2,4 - - 8 4 - - ZZW 1018,2 50 0,0
26.01.2021 04:00:00 0,8 -2,5 - - 9 5 - - WZW 1018,0 50 0,0
26.01.2021 03:00:00 0,7 -1,2 - - 11 6 - - WZW 1018,1 50 0,0
26.01.2021 02:00:00 0,4 -1,3 - - 15 8 - - W 1017,9 50 0,0
26.01.2021 01:00:00 0,0 -2,3 - - 13 7 - - WZW 1017,6 50 0,0
26.01.2021 00:00:00 -0,1 -2,8 - - 13 7 - - WZW 1017,4 50 0,0
25.01.2021 23:00:00 -0,2 -3,1 - - 13 7 - - W 1017,2 50 0,0
25.01.2021 22:00:00 0,2 -2,8 - - 13 7 - - W 1016,7 50 0,0
25.01.2021 21:00:00 0,7 -2,3 - - 16 9 - - W 1016,1 50 0,0
25.01.2021 20:00:00 1,1 -2,0 - - 16 9 - - W 1015,6 50 0,0
25.01.2021 19:00:00 1,4 -1,8 - - 18 10 - - W 1014,8 50 0,0
25.01.2021 18:00:00 1,4 -1,6 - - 13 7 - - W 1014,0 50 0,0
25.01.2021 17:00:00 1,5 -1,5 - - 13 7 - - W 1013,5 50 0,0
25.01.2021 16:00:00 2,4 -1,3 - - 15 8 - - WNW 1012,7 50 0,0
25.01.2021 15:00:00 3,2 -0,8 - - 16 9 - - WNW 1011,9 40 0,0
25.01.2021 14:00:00 2,8 -0,7 - - 18 10 - - WNW 1011,3 45 0,0
25.01.2021 13:00:00 2,1 -1,2 - - 16 9 - - NW 1010,8 45 0,2
25.01.2021 12:00:00 0,9 -1,7 - - 18 10 - - WNW 1010,5 35 0,2
25.01.2021 11:00:00 0,0 -2,4 - - 21 11 - - WNW 1010,3 30 0,0
25.01.2021 10:00:00 -1,2 -3,0 - - 11 6 - - WNW 1009,6 21 0,0
25.01.2021 09:00:00 -2,9 -4,1 4,2 7,2 11 6 - - WNW 1009,0 22 0,0
25.01.2021 08:00:00 -3,0 -4,3 - - 11 6 - - NW 1008,0 30 0,0
25.01.2021 07:00:00 -3,0 -4,2 - - 13 7 - - NW 1007,0 28 0,0
25.01.2021 06:00:00 -3,1 -3,8 - - 13 7 - - WNW 1006,2 11 0,0
25.01.2021 05:00:00 -2,5 -3,1 - - 8 4 - - W 1005,3 11 0,0
25.01.2021 04:00:00 -1,6 -2,1 - - 9 5 - - WNW 1004,2 7 0,0
25.01.2021 03:00:00 -0,9 -1,6 - - 9 5 - - NNW 1003,1 12 0,0
25.01.2021 02:00:00 0,3 -0,4 - - 15 8 - - NNW 1001,9 12 0,0
25.01.2021 01:00:00 0,2 -0,6 - - 15 8 - - N 1000,8 17 0,2
25.01.2021 00:00:00 0,4 0,1 - - 15 8 - - N 999,5 10 0,0
24.01.2021 23:00:00 0,4 0,1 - - 15 8 - - NNO 998,3 9 0,0
24.01.2021 22:00:00 0,0 -0,3 - - 13 7 - - NNW 997,2 0,5 0,0
24.01.2021 21:00:00 0,2 -0,7 - - 16 9 - - NNW 996,4 40 0,0
24.01.2021 20:00:00 0,0 -0,7 - - 11 6 - - NW 995,9 19 0,0
24.01.2021 19:00:00 0,2 -0,3 - - 16 9 - - WNW 995,3 10 0,0
24.01.2021 18:00:00 0,4 -0,2 - - 13 7 - - WNW 994,9 27 0,0
24.01.2021 17:00:00 0,4 -0,3 - - 13 7 - - WNW 994,7 45 0,0
24.01.2021 16:00:00 0,4 -0,1 - - 15 8 - - WNW 994,5 40 0,0
24.01.2021 15:00:00 0,6 0,2 - - 13 7 - - W 994,2 24 0,8
24.01.2021 14:00:00 0,9 0,4 - - 9 5 - - ZZW 994,0 10 2,4
24.01.2021 13:00:00 1,0 0,4 - - 13 7 - - ZZO 994,3 9 0,6
24.01.2021 12:00:00 0,2 -0,1 - - 11 6 - - ZZO 995,0 0,8 0,0
24.01.2021 11:00:00 -0,1 -0,6 - - 9 5 - - ZO 996,0 3,4 0,0
24.01.2021 10:00:00 1,1 -1,9 - - 11 6 - - ZO 996,2 50 0,0
24.01.2021 09:00:00 1,0 -2,4 4,7 7,2 13 7 - - ZO 996,7 50 0,0
24.01.2021 08:00:00 0,0 -3,0 - - 11 6 - - ZO 997,7 50 0,0
24.01.2021 07:00:00 -0,6 -2,8 - - 8 4 - - ZZO 998,5 50 0,0
24.01.2021 06:00:00 -1,2 -2,9 - - 8 4 - - ZZW 999,2 50 0,0
24.01.2021 05:00:00 -1,4 -3,0 - - 8 4 - - ZZW 999,3 50 0,0
24.01.2021 04:00:00 -1,8 -3,2 - - 8 4 - - ZW 999,9 50 0,0
24.01.2021 03:00:00 -2,0 -3,4 - - 8 4 - - WZW 999,8 50 0,0
24.01.2021 02:00:00 -2,0 -3,4 - - 9 5 - - WZW 1000,0 50 0,0
24.01.2021 01:00:00 -1,8 -3,1 - - 13 7 - - W 999,6 35 0,0
24.01.2021 00:00:00 -2,0 -3,1 - - 11 6 - - W 999,3 50 0,0
23.01.2021 23:00:00 -1,8 -3,2 - - 11 6 - - W 999,1 35 0,0
23.01.2021 22:00:00 -1,0 -1,8 - - 8 4 - - W 998,5 35 0,0
23.01.2021 21:00:00 -1,0 -2,5 - - 9 5 - - WNW 998,2 50 0,0
23.01.2021 20:00:00 -0,2 -2,1 - - 11 6 - - WNW 997,8 50 0,0
23.01.2021 19:00:00 0,8 -1,8 - - 13 7 - - NW 997,1 50 0,0
23.01.2021 18:00:00 0,8 -1,1 - - 13 7 - - WNW 996,9 50 0,0
23.01.2021 17:00:00 1,0 -1,1 - - 15 8 - - WNW 996,4 50 0,0
23.01.2021 16:00:00 2,0 -1,1 - - 13 7 - - NW 995,8 45 0,0
23.01.2021 15:00:00 2,8 0,1 - - 16 9 - - WNW 995,3 40 0,0
23.01.2021 14:00:00 2,2 0,6 - - 13 7 - - NW 995,1 24 0,0
23.01.2021 13:00:00 2,3 0,7 - - 13 7 - - NW 995,0 30 0,0
23.01.2021 12:00:00 1,0 0,4 - - 11 6 - - WNW 995,2 21 0,0
23.01.2021 11:00:00 -0,1 -0,3 - - 8 4 - - WNW 995,2 8 0,0
23.01.2021 10:00:00 -0,4 -0,6 - - 5 3 - - ZW 994,9 8 0,0
23.01.2021 09:00:00 -1,0 -1,2 5,4 7,4 0 0 - - N 994,4 12 0,0
23.01.2021 08:00:00 -1,4 -1,7 - - 2 1 - - ZW 994,4 9 0,0
23.01.2021 07:00:00 -0,6 -1,0 - - 5 3 - - W 994,1 18 0,0
23.01.2021 06:00:00 -1,0 -1,7 - - 2 1 - - ZZO 994,2 13 0,0
23.01.2021 05:00:00 0,1 -0,9 - - 2 1 - - ZZW 994,4 35 0,0
23.01.2021 04:00:00 0,6 -0,6 - - 9 5 - - W 994,5 45 0,0
23.01.2021 03:00:00 1,4 0,3 - - 9 5 - - WZW 994,9 50 0,0
23.01.2021 02:00:00 1,7 0,4 - - 16 9 - - W 994,4 50 0,0
23.01.2021 01:00:00 2,8 1,3 - - 15 8 - - W 994,5 50 0,0
23.01.2021 00:00:00 3,0 1,8 - - 16 9 - - WZW 994,3 45 0,0
22.01.2021 23:00:00 3,0 1,6 - - 15 8 - - WZW 993,9 50 0,0
22.01.2021 22:00:00 2,7 1,5 - - 13 7 - - WZW 993,6 50 0,0
22.01.2021 21:00:00 3,0 2,0 - - 16 9 - - ZW 993,6 40 0,0
22.01.2021 20:00:00 3,9 2,7 - - 16 9 - - ZZW 993,7 50 0,0
22.01.2021 19:00:00 3,6 2,5 - - 11 6 - - Z 993,7 45 0,0
22.01.2021 18:00:00 3,9 2,5 - - 9 5 - - ZZW 993,9 19 0,0
22.01.2021 17:00:00 4,9 1,4 - - 11 6 - - Z 993,9 50 0,0
22.01.2021 16:00:00 5,3 1,3 - - 9 5 - - ZW 993,9 50 0,0
22.01.2021 15:00:00 5,9 0,9 - - 15 8 - - WZW 994,0 50 0,0
22.01.2021 14:00:00 6,4 0,5 - - 13 7 - - W 993,7 50 0,0
22.01.2021 13:00:00 6,3 0,5 - - 16 9 - - W 994,0 40 0,0
22.01.2021 12:00:00 5,6 0,9 - - 15 8 - - W 994,1 35 0,0
22.01.2021 11:00:00 4,5 1,2 - - 15 8 - - W 994,1 30 0,2
22.01.2021 10:00:00 2,6 0,9 - - 15 8 - - WZW 993,6 50 0,0
22.01.2021 09:00:00 1,0 0,1 5,7 7,2 11 6 - - WZW 993,1 45 0,0
22.01.2021 08:00:00 0,7 -0,2 - - 16 9 - - W 992,1 35 0,0
22.01.2021 07:00:00 0,8 -0,4 - - 15 8 - - W 991,3 50 0,0
22.01.2021 06:00:00 0,3 -0,7 - - 11 6 - - WZW 990,8 45 0,0
22.01.2021 05:00:00 1,5 -0,2 - - 16 9 - - WZW 990,5 50 0,0
22.01.2021 04:00:00 1,5 -0,3 - - 16 9 - - W 989,9 50 0,0
22.01.2021 03:00:00 1,7 -0,1 - - 15 8 - - W 989,4 50 0,0
22.01.2021 02:00:00 1,8 0,3 - - 15 8 - - W 988,9 50 0,0
22.01.2021 01:00:00 2,0 0,6 - - 13 7 - - WZW 988,4 50 0,0
22.01.2021 00:00:00 2,4 0,7 - - 13 7 - - WZW 987,8 50 0,0
21.01.2021 23:00:00 2,9 1,0 - - 13 7 - - W 987,2 45 0,0
21.01.2021 22:00:00 4,1 2,2 - - 16 9 - - W 985,9 45 0,0
21.01.2021 21:00:00 4,7 3,0 - - 13 7 - - W 985,3 40 0,0
21.01.2021 20:00:00 4,5 2,7 - - 11 6 - - ZW 984,6 45 0,0
21.01.2021 19:00:00 4,9 2,7 - - 13 7 - - ZW 984,5 50 0,0
21.01.2021 18:00:00 5,3 3,3 - - 8 4 - - ZZW 984,4 40 0,0
21.01.2021 17:00:00 5,8 3,2 - - 13 7 - - ZZW 984,8 50 0,0
21.01.2021 16:00:00 6,3 3,3 - - 13 7 - - ZZW 985,1 45 0,0
21.01.2021 15:00:00 6,8 2,9 - - 16 9 46 25 ZW 985,8 40 0,0
21.01.2021 14:00:00 6,9 2,6 - - 26 14 - - ZW 986,3 40 0,0
21.01.2021 13:00:00 7,0 2,7 - - 26 14 50 27 ZW 987,0 35 0,0
21.01.2021 12:00:00 7,4 2,2 - - 28 15 55 30 ZW 987,3 30 0,0

tt = temperatuur
td = dauwpunt
tt -20cm = temperatuur -20cm
tt -100cm = temperatuur -100cm
ff = windsnelheid
fx = windstoten
dd = windrichting
ppp = luchtdruk
vv = zicht
rr = neerslag

Weerstations in de omgeving